• în România
  • Lista ţărilor
  • Pe 7 zile
  • Temperatura apei
  • Hartă satelitară
  • Meteo pe hartă
  • Widget-uri
  • user-avatar
    Intrare

    Meteo pe oră la Oyem

    Astăzi, 17 August, Vineri

    Timp Temperatura Precipitaţii Vânt Presiune Umiditate
    00:00 +22°C° 0,3 mm 1 m/s 706 mmHg 97%
    01:00 +22°C° 0 mm 1 m/s 706 mmHg 97%
    02:00 +22°C° 0,1 mm 1 m/s 706 mmHg 97%
    03:00 +22°C° 0,1 mm 1 m/s 705 mmHg 97%
    04:00 +22°C° 0,1 mm 1 m/s 705 mmHg 97%
    05:00 +22°C° 0 mm 1 m/s 706 mmHg 97%
    06:00 +22°C° 0 mm 1 m/s 706 mmHg 97%
    07:00 +22°C° 0 mm 1 m/s 706 mmHg 97%
    08:00 +23°C° 0 mm 1 m/s 706 mmHg 90%
    09:00 +24°C° 0 mm 1 m/s 707 mmHg 84%
    10:00 +25°C° 0 mm 1 m/s 707 mmHg 77%
    11:00 +27°C° 0,3 mm 1 m/s 707 mmHg 73%
    12:00 +28°C° 0,3 mm 1 m/s 706 mmHg 68%
    13:00 +29°C° 0,3 mm 1 m/s 706 mmHg 64%
    14:00 +28°C° 0,5 mm 1 m/s 705 mmHg 69%
    15:00 +28°C° 0,5 mm 1 m/s 704 mmHg 73%
    16:00 +27°C° 0,5 mm 1 m/s 703 mmHg 78%
    17:00 +26°C° 0,4 mm 1 m/s 703 mmHg 84%
    18:00 +24°C° 0,4 mm 1 m/s 704 mmHg 90%
    19:00 +23°C° 0,4 mm 1 m/s 704 mmHg 96%
    20:00 +22°C° 0 mm 1 m/s 704 mmHg 96%
    21:00 +22°C° 0 mm 1 m/s 705 mmHg 97%
    22:00 +22°C° 0 mm 1 m/s 705 mmHg 97%
    23:00 +22°C° 0 mm 1 m/s 705 mmHg 98%

    Mâine, 18 August, Sâmbătă

    Timp Temperatura Precipitaţii Vânt Presiune Umiditate
    00:00 +21°C° 0 mm 1 m/s 705 mmHg 98%
    01:00 +21°C° 0 mm 1 m/s 705 mmHg 98%
    02:00 +21°C° 0 mm 1 m/s 704 mmHg 99%
    03:00 +21°C° 0 mm 1 m/s 704 mmHg 99%
    04:00 +21°C° 0 mm 1 m/s 704 mmHg 99%
    05:00 +21°C° 0 mm 1 m/s 704 mmHg 98%
    06:00 +21°C° 0 mm 1 m/s 704 mmHg 98%
    07:00 +21°C° 0 mm 1 m/s 704 mmHg 97%
    08:00 +22°C° 0 mm 1 m/s 705 mmHg 90%
    09:00 +24°C° 0 mm 1 m/s 705 mmHg 83%
    10:00 +26°C° 0 mm 1 m/s 706 mmHg 76%
    11:00 +27°C° 0 mm 1 m/s 706 mmHg 71%
    12:00 +28°C° 0 mm 1 m/s 705 mmHg 66%
    13:00 +29°C° 0 mm 1 m/s 705 mmHg 61%
    14:00 +29°C° 0,1 mm 1 m/s 704 mmHg 60%
    15:00 +29°C° 0,1 mm 2 m/s 703 mmHg 59%
    16:00 +30°C° 0,1 mm 2 m/s 703 mmHg 58%
    17:00 +28°C° 0,3 mm 1 m/s 703 mmHg 69%
    18:00 +26°C° 0,3 mm 1 m/s 703 mmHg 79%
    19:00 +24°C° 0,3 mm 1 m/s 703 mmHg 90%
    20:00 +23°C° 0,1 mm 1 m/s 704 mmHg 91%
    21:00 +23°C° 0,1 mm 1 m/s 704 mmHg 93%
    22:00 +22°C° 0,1 mm 1 m/s 705 mmHg 95%
    23:00 +22°C° 0 mm 1 m/s 705 mmHg 95%

    Poimâine, 19 August, Duminică

    Timp Temperatura Precipitaţii Vânt Presiune Umiditate
    00:00 +22°C° 0 mm 1 m/s 705 mmHg 96%
    01:00 +21°C° 0 mm 1 m/s 705 mmHg 97%
    02:00 +21°C° 0 mm 1 m/s 704 mmHg 98%
    03:00 +21°C° 0 mm 1 m/s 704 mmHg 98%
    04:00 +20°C° 0 mm 1 m/s 704 mmHg 98%
    05:00 +21°C° 0 mm 1 m/s 704 mmHg 98%
    06:00 +21°C° 0 mm 1 m/s 705 mmHg 97%
    07:00 +21°C° 0 mm 1 m/s 705 mmHg 96%
    08:00 +23°C° 0 mm 1 m/s 706 mmHg 87%
    09:00 +25°C° 0 mm 1 m/s 706 mmHg 79%
    10:00 +26°C° 0 mm 2 m/s 707 mmHg 70%
    11:00 +27°C° 0,1 mm 2 m/s 706 mmHg 67%
    12:00 +28°C° 0,1 mm 2 m/s 706 mmHg 63%
    13:00 +29°C° 0,1 mm 2 m/s 705 mmHg 60%
    14:00 +28°C° 1 mm 2 m/s 704 mmHg 67%
    15:00 +27°C° 1 mm 2 m/s 704 mmHg 75%
    16:00 +26°C° 1 mm 2 m/s 703 mmHg 82%
    17:00 +25°C° 1,1 mm 1 m/s 703 mmHg 86%
    18:00 +24°C° 1,1 mm 1 m/s 704 mmHg 91%
    19:00 +22°C° 1,1 mm 1 m/s 704 mmHg 95%
    20:00 +22°C° 0,1 mm 1 m/s 705 mmHg 95%
    21:00 +22°C° 0,1 mm 1 m/s 705 mmHg 96%
    22:00 +22°C° 0,1 mm 1 m/s 706 mmHg 97%
    23:00 +21°C° 0 mm 1 m/s 706 mmHg 97%

    20 August, Luni

    Timp Temperatura Precipitaţii Vânt Presiune Umiditate
    00:00 +21°C° 0 mm 1 m/s 705 mmHg 97%
    01:00 +21°C° 0 mm 1 m/s 705 mmHg 98%
    02:00 +21°C° 0 mm 1 m/s 705 mmHg 98%
    03:00 +20°C° 0 mm 1 m/s 705 mmHg 99%
    04:00 +18°C° 0 mm 0 m/s 704 mmHg 99%
    05:00 +18°C° 0 mm 0 m/s 705 mmHg 98%
    06:00 +20°C° 0 mm 1 m/s 705 mmHg 98%
    07:00 +21°C° 0 mm 1 m/s 706 mmHg 97%
    08:00 +22°C° 0 mm 1 m/s 706 mmHg 91%
    09:00 +24°C° 0 mm 1 m/s 707 mmHg 85%
    10:00 +25°C° 0 mm 1 m/s 707 mmHg 78%
    11:00 +26°C° 0,1 mm 1 m/s 707 mmHg 73%
    12:00 +27°C° 0,1 mm 1 m/s 706 mmHg 69%
    13:00 +28°C° 0,1 mm 1 m/s 705 mmHg 64%
    14:00 +27°C° 1,3 mm 1 m/s 705 mmHg 70%
    15:00 +27°C° 1,3 mm 2 m/s 704 mmHg 77%
    16:00 +26°C° 1,3 mm 2 m/s 703 mmHg 84%
    17:00 +25°C° 1,4 mm 1 m/s 704 mmHg 88%
    18:00 +23°C° 1,4 mm 1 m/s 704 mmHg 92%
    19:00 +22°C° 1,4 mm 1 m/s 704 mmHg 95%
    20:00 +22°C° 0,2 mm 1 m/s 705 mmHg 96%
    21:00 +22°C° 0,2 mm 1 m/s 706 mmHg 97%
    22:00 +21°C° 0,2 mm 1 m/s 706 mmHg 98%
    23:00 +21°C° 0 mm 1 m/s 706 mmHg 98%

    21 August, Marţi

    Timp Temperatura Precipitaţii Vânt Presiune Umiditate
    00:00 +21°C° 0 mm 1 m/s 706 mmHg 98%
    01:00 +21°C° 0 mm 1 m/s 705 mmHg 99%
    02:00 +21°C° 0 mm 1 m/s 705 mmHg 98%
    03:00 +21°C° 0 mm 1 m/s 705 mmHg 98%
    04:00 +21°C° 0 mm 1 m/s 705 mmHg 98%
    05:00 +21°C° 0 mm 1 m/s 705 mmHg 98%
    06:00 +21°C° 0 mm 1 m/s 705 mmHg 98%
    07:00 +19°C° 0 mm 0 m/s 706 mmHg 98%
    08:00 +22°C° 0 mm 1 m/s 706 mmHg 94%
    09:00 +23°C° 0 mm 1 m/s 707 mmHg 90%
    10:00 +24°C° 0 mm 1 m/s 707 mmHg 87%
    11:00 +24°C° 0,1 mm 1 m/s 706 mmHg 83%
    12:00 +25°C° 0,1 mm 1 m/s 706 mmHg 80%
    13:00 +25°C° 0,1 mm 1 m/s 705 mmHg 77%
    14:00 +26°C° 0,5 mm 1 m/s 705 mmHg 76%
    15:00 +26°C° 0,5 mm 1 m/s 704 mmHg 76%
    16:00 +26°C° 0,5 mm 1 m/s 704 mmHg 75%
    17:00 +25°C° 0,4 mm 1 m/s 704 mmHg 81%
    18:00 +24°C° 0,4 mm 1 m/s 704 mmHg 86%
    19:00 +23°C° 0,4 mm 1 m/s 705 mmHg 92%
    20:00 +22°C° 0 mm 1 m/s 705 mmHg 93%
    21:00 +22°C° 0 mm 1 m/s 705 mmHg 94%
    22:00 +21°C° 0 mm 1 m/s 706 mmHg 96%
    23:00 +21°C° 0 mm 1 m/s 705 mmHg 96%

    22 August, Miercuri

    Timp Temperatura Precipitaţii Vânt Presiune Umiditate
    00:00 +21°C° 0 mm 1 m/s 705 mmHg 96%
    01:00 +21°C° 0 mm 1 m/s 705 mmHg 96%
    02:00 +21°C° 0 mm 1 m/s 704 mmHg 96%
    03:00 +20°C° 0 mm 1 m/s 704 mmHg 96%
    04:00 +20°C° 0 mm 1 m/s 704 mmHg 96%
    05:00 +20°C° 0 mm 1 m/s 704 mmHg 95%
    06:00 +20°C° 0 mm 1 m/s 705 mmHg 95%
    07:00 +20°C° 0 mm 1 m/s 705 mmHg 94%
    08:00 +23°C° 0 mm 1 m/s 706 mmHg 85%
    09:00 +25°C° 0 mm 1 m/s 706 mmHg 76%
    10:00 +27°C° 0 mm 1 m/s 707 mmHg 66%
    11:00 +28°C° 0,1 mm 1 m/s 706 mmHg 65%
    12:00 +28°C° 0,1 mm 1 m/s 706 mmHg 64%
    13:00 +29°C° 0,1 mm 1 m/s 705 mmHg 62%
    14:00 +28°C° 0,7 mm 1 m/s 705 mmHg 67%
    15:00 +28°C° 0,7 mm 1 m/s 704 mmHg 72%
    16:00 +27°C° 0,7 mm 1 m/s 703 mmHg 76%
    17:00 +26°C° 0,7 mm 1 m/s 704 mmHg 82%
    18:00 +24°C° 0,7 mm 1 m/s 704 mmHg 87%
    19:00 +23°C° 0,7 mm 1 m/s 704 mmHg 93%
    20:00 +23°C° 0 mm 1 m/s 705 mmHg 94%
    21:00 +22°C° 0 mm 1 m/s 705 mmHg 95%
    22:00 +22°C° 0 mm 1 m/s 705 mmHg 96%
    23:00 +22°C° 0 mm 1 m/s 705 mmHg 96%
    Arată mai mult